COSMOS 2251 DEB

Satellite information

Favourite Embed

Satellite Type and Status

DEBRISIN ORBIT

Key statistics

Satellite COSMOS 2251 DEB at a glance.

Uptime

11818

Days in orbit

Revolutions

≈ 14.5

Per day

Orbit

LEO

Low Earth Orbit

Inclination

74.0

Latest

Satellite identification and parameters

Extended collection of information and parameters for COSMOS 2251 DEB.

Object identification

Identified? True

Debris? True

Object name: COSMOS 2251 DEB

International designator: 1993-036KM

Object number (NORAD): 34116

Object ID (CCSDS): 34116

Country: COMMONWEALTH OF INDEPENDENT STATES (CIS)

Current information (Y/N): Y

RCS size: SMALL

Orbital parameters

Period: 99.14 minutes

Inclination: 74.0403 deg

SMA: 7095.664 km

Apoapsis: 726.119 km

Periapsis: 708.939 km

RAAN: 276.5809 deg

Eccentricy: 0.00121064

Argument of periapsis: 353.6262 deg

Mean anomaly: 63.3206 deg

Mean motion: 14.52490133 rev/day

Mean motion (dot): 0.00004881 rev/day2

B* drag term: 0.0012005064 1/REarth

Two-line elements (TLE)

Creation date: Oct. 24, 2025, 2:48 a.m.

Reference frame: TEME

Reference center: EARTH

Epoch: Oct. 23, 2025, 11:44 p.m. UTC

TLE line 0: 0 COSMOS 2251 DEB

TLE line 1: 1 34116U 93036KM 25296.98889188 .00004881 00000-0 12005-2 0 9990

TLE line 2: 2 34116 74.0403 276.5809 0012106 353.6262 63.3206 14.52490133877643

Live tracking on map

Real-time ground track for satellite COSMOS 2251 DEB.

In-orbit conjunctions

A list of the most updated potential collisions computed for object COSMOS 2251 DEB.

Target Orbit TCA Probability of collision Miss distance Type
NOAA 17 DEB SSO 2024-09-26 01:09:11 0.0008042533 108.0 (m) DEBRIS
ATLAS 5 CENTAUR R/B SSO 2024-09-02 00:56:14 0.0005709375 638.0 (m) ROCKET BODY

Associated space launch

Military communications satellite. Destroyed in a collision with Iridium 33.

COSMOS 2251 DEB was lifted into orbit during the mission ‘Kosmos-3M | Strela-2M 51’, on board a Kosmos-3M space rocket.

The launch took place on June 16, 1993, 4:17 a.m. from 132/1 (132L).

For more information about the launch, click the button.

Launch to space Kosmos-3M | Strela-2M 51
Kosmos-3M | Strela-2M 51

Agency: N/A

Status: Launch Successful

Launch date: June 16, 1993, 4:17 a.m. UTC

Rocket: Kosmos-3M

Launch pad: 132/1 (132L)

Location: Plesetsk Cosmodrome, Russian Federation

...

Latest news about this satellite

There are no fresh news available about this satellite. Check back as we update our databases every day.


Newsletter sign-up

Weekly statistics, charts and insights to help you stay on top of the space industry.